FW5317 Weather Reports


time (UTC)temp
F
wind
direction
speed
knots
gust
knots
rain 1hr
in
rain 24hr
in
rain mn
in
humidity
%
barometer
mb
20260906171552 74 124 4.3 9.6 0.00 0.00 0.00 90 1017.2
20260906170048 73 119 6.1 10.4 0.00 0.00 0.00 90 1017.1
20260906164546 73 119 8.7 13.0 0.00 0.00 0.00 90 1017.3
20260906163043 72 126 7.8 13.0 0.00 0.00 0.00 91 1017.2
20260906161542 72 119 6.1 10.4 0.00 0.00 0.00 92 1017.2
20260906160041 71 110 6.1 10.4 0.00 0.00 0.00 93 1017.2
20260906154540 71 119 6.1 9.6 0.00 0.00 0.00 94 1017.3
20260906153041 71 117 7.0 10.4 0.00 0.00 0.00 93 1017.3
20260906151540 71 102 5.2 8.7 0.00 0.00 0.00 94 1017.4
20260906150039 71 144 4.3 7.8 0.00 0.00 0.00 94 1017.6
20260906144537 70 102 5.2 7.8 0.00 0.00 0.00 95 1017.3
20260906143037 70 127 5.2 8.7 0.00 0.00 0.00 96 1017.2
20260906141540 70 134 5.2 10.4 0.00 0.00 0.00 96 1017.2
20260906140044 69 146 6.1 10.4 0.00 0.00 0.00 96 1017.3
20260906134535 70 130 7.8 11.3 0.00 0.00 0.00 97 1017.1
20260906133035 70 143 4.3 11.3 0.00 0.00 0.00 97 1016.9
20260906131535 69 120 6.1 10.4 0.00 0.00 0.00 98 1016.7
20260906130029 69 121 7.0 11.3 0.00 0.00 0.00 97 1016.6
20260906124528 69 98 5.2 9.6 0.00 0.00 0.00 98 1016.4
20260906123025 69 116 7.0 12.2 0.00 0.00 0.00 98 1016.4
20260906121524 69 116 6.1 8.7 0.00 0.00 0.00 98 1016.1
20260906120025 69 119 4.3 7.0 0.00 0.00 0.00 98 1016.1
20260906114528 69 108 3.5 7.0 0.00 0.00 0.00 98 1015.9
20260906113028 69 115 4.3 7.8 0.00 0.00 0.00 98 1015.7
20260906111521 69 110 3.5 7.0 0.00 0.00 0.00 98 1015.7
20260906110020 69 115 4.3 7.0 0.00 0.00 0.00 98 1015.8
20260906104521 69 134 3.5 7.8 0.00 0.00 0.00 98 1015.8
20260906103019 69 109 5.2 7.0 0.00 0.00 0.00 98 1015.8
20260906101521 68 116 4.3 7.8 0.00 0.00 0.00 99 1015.8
20260906100021 66 154 0.0 0.0 0.00 0.00 0.00 97 1015.9
20260906094516 66 154 0.0 0.0 0.00 0.00 0.00 96 1015.8
20260906093037 67 154 0.0 0.0 0.00 0.00 0.00 97 1015.4
20260906091511 68 154 0.0 0.9 0.00 0.00 0.00 96 1015.5
20260906090013 68 123 0.9 3.5 0.00 0.00 0.00 96 1014.8
20260906084511 69 108 1.7 3.5 0.00 0.00 0.00 96 1014.8
20260906083011 69 119 1.7 5.2 0.00 0.00 0.00 96 1014.9
20260906081505 69 107 0.9 6.1 0.00 0.00 0.00 96 1014.8
20260906080004 69 117 2.6 7.0 0.00 0.00 0.00 96 1014.7
20260906074504 69 88 4.3 8.7 0.00 0.00 0.00 96 1014.6
20260906073100 70 115 1.7 6.1 0.00 0.00 0.00 96 1014.7
20260906071559 70 121 1.7 7.0 0.00 0.00 0.00 96 1015.0
20260906070057 70 113 2.6 6.1 0.00 0.00 0.00 96 1015.0
20260906064556 70 86 0.9 2.6 0.00 0.00 0.00 96 1015.2
20260906063056 70 46 0.0 1.7 0.00 0.00 0.00 96 1015.3
20260906061602 71 55 0.9 3.5 0.00 0.00 0.00 96 1015.4
20260906060051 71 109 0.9 2.6 0.00 0.00 0.00 96 1015.1
20260906054555 71 78 0.0 1.7 0.00 0.00 0.00 96 1015.1
20260906053103 72 74 0.0 0.9 0.00 0.00 0.00 95 1015.2
20260906051543 72 127 0.9 2.6 0.00 0.00 0.00 95 1014.8
20260906050040 72 121 1.7 3.5 0.00 0.00 0.00 95 1014.7
20260906044539 72 125 1.7 6.1 0.00 0.00 0.00 95 1014.7
20260906043038 73 111 3.5 6.1 0.00 0.00 0.00 95 1014.7
20260906041547 73 88 1.7 3.5 0.00 0.00 0.00 95 1014.8
20260906040037 73 105 0.0 2.6 0.00 0.00 0.00 95 1014.8
20260906034542 73 109 0.9 3.5 0.00 0.00 0.00 94 1014.6
20260906033036 73 54 0.9 3.5 0.00 0.00 0.00 95 1014.6
20260906031539 73 44 0.0 1.7 0.00 0.00 0.00 94 1014.6
20260906030039 73 37 1.7 2.6 0.00 0.00 0.00 95 1014.4
20260906024533 73 56 0.9 2.6 0.00 0.00 0.00 95 1014.4
20260906023032 73 69 0.0 1.7 0.00 0.00 0.00 94 1014.1
20260906021530 73 70 0.0 2.6 0.00 0.00 0.00 94 1014.0
20260906020029 74 71 0.9 2.6 0.00 0.00 0.00 93 1013.7
20260906014541 75 73 0.0 1.7 0.00 0.00 0.00 93 1013.3
20260906013028 75 75 0.0 2.6 0.00 0.00 0.00 93 1013.4
20260906011527 76 57 1.7 5.2 0.00 0.00 0.00 92 1013.3
20260906010053 76 74 2.6 5.2 0.00 0.00 0.00 92 1013.0
20260906004526 77 96 1.7 4.3 0.00 0.00 0.00 90 1013.0
20260906003025 78 104 1.7 4.3 0.00 0.00 0.00 90 1012.8
20260906001536 79 78 1.7 6.1 0.00 0.00 0.00 89 1012.8
20260906000024 80 62 2.6 7.0 0.00 0.00 0.00 88 1012.8
20260905234523 81 48 2.6 5.2 0.00 0.00 0.00 87 1012.7
20260905233022 81 76 1.7 5.2 0.00 0.00 0.00 87 1012.4
20260905231535 82 96 2.6 6.1 0.00 0.00 0.00 85 1012.6
20260905230021 83 46 2.6 7.0 0.00 0.00 0.00 83 1012.5
20260905224524 84 52 2.6 7.8 0.00 0.00 0.00 83 1012.5
20260905223030 84 75 3.5 7.0 0.00 0.00 0.00 82 1012.4
20260905221519 84 92 5.2 10.4 0.00 0.00 0.00 82 1012.1
20260905220025 85 101 4.3 11.3 0.00 0.00 0.00 81 1011.8
20260905214519 85 112 7.0 13.0 0.00 0.00 0.00 80 1011.5
20260905213020 86 80 5.2 9.6 0.00 0.00 0.00 81 1011.4
20260905211534 86 87 6.1 12.2 0.00 0.00 0.00 80 1011.6
20260905210016 86 97 5.2 10.4 0.00 0.00 0.00 80 1011.5
20260905204524 86 61 4.3 9.6 0.00 0.00 0.00 80 1012.0
20260905203033 86 94 2.6 9.6 0.00 0.00 0.00 82 1012.3
20260905201523 86 80 2.6 8.7 0.00 0.00 0.00 81 1012.6
20260905200014 85 79 6.1 11.3 0.00 0.00 0.00 82 1012.8
20260905194513 86 81 4.3 9.6 0.00 0.00 0.00 80 1013.0
20260905193020 86 36 4.3 11.3 0.00 0.00 0.00 82 1012.9
20260905191523 86 29 6.1 10.4 0.00 0.00 0.00 80 1013.4
20260905190012 86 28 5.2 11.3 0.00 0.00 0.00 82 1013.4
20260905184512 87 48 5.2 8.7 0.00 0.00 0.00 79 1013.5
20260905183010 86 5 2.6 9.6 0.00 0.00 0.00 80 1013.5
20260905181508 87 51 7.0 9.6 0.00 0.00 0.00 79 1013.6
20260905180006 86 19 3.5 7.8 0.00 0.00 0.00 81 1013.9
20260905174505 85 34 0.9 5.2 0.00 0.00 0.00 81 1014.1
20260905173001 85 89 0.9 5.2 0.00 0.00 0.00 83 1013.9